This is the latest recevied weather packets stored in our database for station/object KB4MOX. If no packets are shown the sender has not sent any weather packets the latest 10 day(s).
| Time | Temp. | Humidity | Pressure | Rain* | Wind** | Luminosity | Snow |
|---|---|---|---|---|---|---|---|
| 1787687084 | 36.11° C | 40% | 1015 hPa | 0 mm | - | 689 W/m² | - |
| 1787686780 | 35° C | 41% | 1015.1 hPa | 0 mm | - | 699 W/m² | - |
| 1787686476 | 35° C | 42% | 1015.1 hPa | 0 mm | - | 712 W/m² | - |
| 1787686171 | 35° C | 41% | 1015.1 hPa | 0 mm | - | 757 W/m² | - |
| 1787685867 | 35.56° C | 40% | 1015.3 hPa | 0 mm | - | 789 W/m² | - |
| 1787685566 | 35.56° C | 41% | 1015.5 hPa | 0 mm | - | 772 W/m² | - |
| 1787685261 | 35.56° C | 40% | 1015.5 hPa | 0 mm | - | 763 W/m² | - |
| 1787684956 | 35.56° C | 38% | 1015.3 hPa | 0 mm | - | 781 W/m² | - |
| 1787684652 | 35.56° C | 39% | 1015.6 hPa | 0 mm | - | 770 W/m² | - |
| 1787684350 | 35.56° C | 41% | 1015.7 hPa | 0 mm | - | 743 W/m² | - |
| 1787684046 | 35.56° C | 41% | 1015.7 hPa | 0 mm | - | 767 W/m² | - |
| 1787683745 | 35° C | 39% | 1015.5 hPa | 0 mm | - | 797 W/m² | - |
| 1787683441 | 35° C | 39% | 1015.7 hPa | 0 mm | - | 786 W/m² | - |
| 1787683136 | 35.56° C | 39% | 1015.9 hPa | 0 mm | - | 784 W/m² | - |
| 1787682834 | 35.56° C | 39% | 1016 hPa | 0 mm | - | 787 W/m² | - |
| 1787682528 | 35° C | 40% | 1016 hPa | 0 mm | - | 794 W/m² | - |
| 1787682224 | 34.44° C | 41% | 1016 hPa | 0 mm | - | 688 W/m² | - |
| 1787681920 | 35° C | 40% | 1016.2 hPa | 0 mm | - | 839 W/m² | - |
| 1787681619 | 34.44° C | 42% | 1016.1 hPa | 0 mm | - | 819 W/m² | - |
| 1787681314 | 35° C | 40% | 1016.1 hPa | 0 mm | - | 801 W/m² | - |
| 1787681010 | 34.44° C | 41% | 1016.4 hPa | 0 mm | - | 799 W/m² | - |
| 1787680709 | 34.44° C | 41% | 1016.2 hPa | 0 mm | - | 821 W/m² | - |
| 1787680409 | 33.89° C | 44% | 1016.5 hPa | 0 mm | - | 798 W/m² | - |
| 1787680107 | 33.89° C | 45% | 1016.7 hPa | 0 mm | - | 803 W/m² | - |
| 1787679802 | 33.89° C | 44% | 1016.7 hPa | 0 mm | - | 801 W/m² | - |
* Rain latest hour (hover to see other rain measurements)
** Current wind speed in m/s (hover to see current wind gust speed)